Погода в Сандакане

Малайзия     5°51′05″N   118°06′06″E
темп.,
°C
ветер,
м/с
пор.,
м/с
влажн.,
%
обл.,
%
осадки,
мм/ч
давл.,
гПа
погр.,
м
12 мая, ср
ср1223:00+25юв119465 3.9 100958
02:00+25ююв119540 3.9 100756
05:00+24ююз119730 0.0 100764
08:00+26ююз129145 0.0 1009253
11:00+32вюв1262100 0.5 10081057
14:00+29всв348252 2.3 1006469
17:00+28всв258786 4.3 1006302
20:00+26в139344 5.8 100874
13 мая, чт
чт1323:00+25юв12958 0.1 100870
02:00+24ю129670 0.3 100681
05:00+24ю1196100 0.0 100752
08:00+26ю128867 0.0 1008258
11:00+33юв125680 0.0 10071235
14:00+28всв368396 0.9 1005393
17:00+27в2691100 4.8 1005267
20:00+25в2493100 7.1 1007117
14 мая, пт
пт1423:00+25юв1294100 0.4 100861
02:00+24ю1295100 0.4 100660
05:00+24ююз119692 0.0 100653
08:00+26ююз1287100 0.0 1008239
11:00+32вюв1257100 0.0 10071268
14:00+30всв347287 0.8 1004820
17:00+28в258890 4.8 1004323
20:00+25вюв2594100 11.7 1007153
15 мая, сб
сб1523:00+25юв1397100 4.3 100886
02:00+24ююв129696 4.7 100664
05:00+24ю119689 0.1 100658
08:00+26ююз1291100 0.1 1008232
11:00+32ююв126087 0.0 10071260
14:00+28всв258948 1.7 1005277
17:00+27в269245 4.5 1004219
20:00+25вюв249349 5.2 100699
16 мая, вс
вс1623:00+25юв249580 0.8 1007123
02:00+24ю129672 1.4 100677
05:00+24ю129724 0.1 100686
08:00+26ю129149 0.1 1008246
11:00+31ююв246457 1.4 1007991
14:00+30вюв237194 3.4 1005880
17:00+28всв249192 5.3 1005164
20:00+25вюв2393100 7.4 100788